This demonstration page uses our WeatherBlox Daily Observations layout. Learn more.

Left ArrowRight Arrow

Hourly Observations for February 2, 2019

Temp ( °F °C ) Dew Point ( °F °C ) Humidity (%) Winds ( mph kmh ) Pressure ( in mb ) Visibility ( mi km ) Precip ( " mm )
12:53 am 00:53 Clear with Mist and Fog 7 -13.9 3 -16.1 84 84 N N/A 30.37 1029 6 9.65604 N/A
1:30 am 01:30 Hazy 9 -12.8 4 -15.6 80 80 N N/A 30.4 1029 4 6.43736 N/A
1:37 am 01:37 Mostly Cloudy with Mist and Fog 9 -12.8 5 -15 84 84 N N/A 30.4 1029 5 8.0467 N/A
1:53 am 01:53 Cloudy with Mist and Fog 13 -10.6 9 -12.8 84 84 N N/A 30.35 1028 6 9.65604 N/A
2:53 am 02:53 Cloudy with Mist and Fog 18 -7.8 15 -9.4 88 88 N N/A 30.35 1028 6 9.65604 N/A
3:43 am 03:43 Cloudy with Mist and Fog 20 -6.7 16 -8.9 85 85 N N/A 30.36 1028 1.75 2.816345 N/A
3:53 am 03:53 Cloudy with Mist and Fog 20 -6.7 17 -8.3 89 89 N N/A 30.33 1027 1.25 2.011675 N/A
4:05 am 04:05 Mostly Cloudy with Freezing Fog 20 -6.7 18 -7.8 92 92 N N/A 30.35 1028 0.5 0.80467 N/A
4:53 am 04:53 Mostly Cloudy with Freezing Fog 22 -5.6 19 -7.2 89 89 N N/A 30.33 1027 0.25 0.402335 N/A
5:53 am 05:53 Mostly Cloudy with Freezing Fog 23 -5 20 -6.7 88 88 N N/A 30.32 1027 0.25 0.402335 N/A
6:53 am 06:53 Mostly Cloudy with Freezing Fog 24 -4.4 22 -5.6 91 91 N N/A 30.31 1027 0.25 0.402335 N/A
7:53 am 07:53 Mostly Cloudy with Freezing Fog 27 -2.8 24 -4.4 89 89 ENE 3 6 30.3 1026 5 8.0467 N/A
8:53 am 08:53 Cloudy with Freezing Fog 29 -1.7 28 -2.2 96 96 N N/A 30.3 1026 0.5 0.80467 N/A
9:40 am 09:40 Cloudy with Mist and Fog 29 -1.7 28 -2.2 96 96 VRB 3 6 30.32 1027 1.25 2.011675 N/A
9:49 am 09:49 Cloudy with Mist and Fog 30 -1 28 -2 93 93 SSW 3 6 30.32 1027 2 3.21868 N/A
9:53 am 09:53 Cloudy with Mist and Fog 30 -1.1 29 -1.7 96 96 VRB 3 6 30.31 1026 2 3.21868 N/A
10:01 am 10:01 Cloudy with Mist and Fog 30 -1.1 29 -1.7 96 96 SSW 3 6 30.32 1027 1.5 2.41401 N/A
10:14 am 10:14 Cloudy with Mist and Fog 30 -1.1 29 -1.7 96 96 S 3 6 30.32 1027 1.75 2.816345 N/A
10:21 am 10:21 Cloudy with Mist and Fog 30 -1.1 30 -1.1 100 100 VRB 6 9 30.32 1027 2 3.21868 N/A
10:39 am 10:39 Cloudy with Mist and Fog 31 -0.6 30 -1.1 96 96 SSW 5 7 30.32 1027 3 4.82802 N/A
10:53 am 10:53 Cloudy with Mist and Fog 31 -0.6 30 -1.1 96 96 S 5 7 30.3 1026 4 6.43736 N/A
11:53 am 11:53 Cloudy with Mist and Fog 32 undefined 31 -0.6 96 96 S 3 6 30.29 1026 6 9.65604 N/A
12:01 pm 12:01 Cloudy with Mist and Fog 33 0.6 32 undefined 96 96 SSW 3 6 30.28 1025 6 9.65604 N/A
12:24 pm 12:24 Cloudy 35 1.7 32 undefined 89 89 VRB 3 6 30.28 1025 7 11.26538 N/A
12:53 pm 12:53 Partly Cloudy 37 2.8 33 0.6 86 86 VRB 3 6 30.25 1025 8 12.87472 N/A
1:53 pm 13:53 Partly Cloudy 41 5 34 1.1 76 76 SW 6 9 30.22 1023 9 14.48406 N/A
2:53 pm 14:53 Cloudy 40 4.4 34 1.1 79 79 NW 3 6 30.2 1023 10 16.0934 N/A
3:35 pm 15:35 Partly Cloudy 43 6.1 35 1.7 74 74 N N/A 30.18 1022 10 16.0934 N/A
3:53 pm 15:53 Partly Cloudy 44 6.7 35 1.7 71 71 NNW 3 6 30.18 1022 10 16.0934 N/A
4:53 pm 16:53 Sunny 45 7.2 36 2.2 71 71 N N/A 30.16 1021 10 16.0934 N/A
5:53 pm 17:53 Sunny 39 3.9 33 0.6 79 79 N N/A 30.15 1021 10 16.0934 N/A
6:53 pm 18:53 Clear 32 undefined 29 -1.7 88 88 N N/A 30.15 1021 9 14.48406 N/A
7:53 pm 19:53 Clear with Mist and Fog 30 -1.1 26 -3.3 85 85 N N/A 30.15 1021 6 9.65604 N/A
8:53 pm 20:53 Clear with Mist and Fog 30 -1.1 27 -2.8 88 88 E 3 6 30.14 1021 5 8.0467 N/A
9:53 pm 21:53 Clear with Mist and Fog 30 -1.1 27 -2.8 88 88 E 3 6 30.14 1021 5 8.0467 N/A
10:53 pm 22:53 Clear with Mist and Fog 31 -0.6 28 -2.2 89 89 E 3 6 30.13 1020 6 9.65604 N/A
11:53 pm 23:53 Clear with Mist and Fog 33 0.6 30 -1.1 89 89 N N/A 30.12 1020 6 9.65604 N/A

Powered by AerisWeather